Total_Precipitation_Accumulation
0.76 0.82 0.90 0.96 1.01 1.07 1.12 1.11 1.08 1.04 1.03 1.06 1.10 1.10 1.13 1.17 1.25 1.29 1.25 1.44 1.57 1.60 1.43 1.35 1.31 1.29 1.28 1.16 1.18 1.25 1.32 1.48 1.52 1.26 1.18 1.27 1.35 1.30 1.32 1.28 1.19 1.20 1.13
0.68 0.82 0.85 0.94 0.99 1.00 1.04 1.22 1.22 1.18 1.16 1.17 1.19 1.24 1.24 1.22 1.28 1.25 1.15 1.22 1.41 1.62 1.80 1.86 1.66 1.54 1.50 1.38 1.36 1.33 1.34 1.44 1.50 1.47 1.39 1.42 1.42 1.41 1.40 1.23 1.04 1.00 1.04
0.59 0.71 0.81 0.89 0.99 1.08 1.19 1.33 1.44 1.41 1.39 1.40 1.44 1.40 1.39 1.41 1.37 1.31 1.28 1.33 1.41 1.47 1.67 1.86 1.85 1.89 1.71 1.62 1.54 1.47 1.43 1.38 1.48 1.47 1.40 1.52 1.56 1.56 1.44 1.16 1.06 1.10 1.01
0.72 0.82 0.87 1.03 1.18 1.28 1.31 1.44 1.50 1.53 1.56 1.60 1.65 1.60 1.55 1.57 1.54 1.49 1.45 1.44 1.47 1.47 1.49 1.56 1.67 1.88 1.86 1.80 1.70 1.65 1.64 1.64 1.66 1.62 1.58 1.67 1.85 1.90 1.68 1.34 1.20 1.16 1.08
0.98 1.04 1.05 1.15 1.28 1.45 1.64 1.71 1.73 1.76 1.76 1.87 1.84 1.74 1.70 1.70 1.58 1.62 1.74 1.73 1.76 1.62 1.52 1.47 1.46 1.63 1.71 1.72 1.58 1.60 1.71 1.76 1.78 1.76 1.75 1.83 1.91 2.01 1.74 1.47 1.28 1.20 1.14
1.40 1.47 1.57 1.65 1.74 1.85 1.92 1.94 2.01 2.03 2.01 1.94 1.86 1.84 1.81 1.67 1.77 1.78 1.69 1.71 1.87 1.88 1.77 1.68 1.56 1.46 1.46 1.51 1.57 1.60 1.64 1.66 1.71 1.75 1.73 1.77 1.84 1.90 1.95 1.74 1.49 1.27 1.15
1.50 1.56 1.68 1.78 1.86 1.91 1.99 2.04 2.02 2.00 1.94 1.85 1.85 1.88 1.84 1.87 1.81 1.61 1.48 1.47 1.55 1.65 1.72 1.70 1.49 1.35 1.41 1.37 1.53 1.59 1.52 1.46 1.43 1.49 1.55 1.62 1.93 2.12 2.28 2.03 1.77 1.58 1.36
1.50 1.55 1.57 1.61 1.67 1.78 1.88 1.89 1.83 1.79 1.76 1.70 1.69 1.60 1.54 1.53 1.53 1.35 1.31 1.27 1.27 1.25 1.35 1.45 1.42 1.33 1.32 1.34 1.28 1.19 1.14 1.15 1.15 1.09 1.16 1.36 1.66 2.09 2.32 2.32 2.24 2.01 1.76
1.29 1.35 1.36 1.46 1.56 1.64 1.69 1.71 1.73 1.69 1.53 1.39 1.32 1.30 1.29 1.35 1.47 1.30 1.23 1.19 1.23 1.15 1.14 1.15 1.15 1.08 1.12 1.09 1.02 0.92 0.87 0.89 0.92 0.94 0.97 1.13 1.37 1.66 2.00 2.15 2.08 1.86 1.58
1.36 1.46 1.51 1.56 1.64 1.61 1.62 1.64 1.59 1.52 1.43 1.39 1.31 1.25 1.24 1.26 1.37 1.21 1.13 1.12 1.18 1.15 1.13 1.17 1.27 1.12 0.98 0.83 0.81 0.84 0.76 0.74 0.79 0.80 0.81 0.87 0.98 1.20 1.57 1.69 1.68 1.65 1.47
1.33 1.42 1.45 1.47 1.51 1.51 1.56 1.50 1.49 1.47 1.43 1.34 1.26 1.24 1.26 1.24 1.24 1.08 0.97 0.93 0.97 0.98 0.92 0.92 1.04 1.03 0.84 0.70 0.70 0.72 0.67 0.65 0.68 0.67 0.67 0.71 0.82 0.97 1.14 1.41 1.49 1.41 1.30
1.38 1.46 1.43 1.43 1.41 1.39 1.36 1.31 1.31 1.31 1.27 1.22 1.22 1.23 1.29 1.27 1.13 0.99 0.85 0.79 0.82 0.82 0.90 0.91 1.00 1.03 0.82 0.70 0.61 0.59 0.55 0.50 0.54 0.62 0.61 0.62 0.70 0.81 1.00 1.22 1.41 1.42 1.29
1.46 1.53 1.55 1.49 1.44 1.43 1.44 1.42 1.36 1.35 1.33 1.26 1.19 1.10 1.08 1.12 1.11 0.95 0.78 0.70 0.73 0.75 0.94 1.15 1.17 1.11 0.94 0.78 0.70 0.69 0.57 0.49 0.54 0.60 0.62 0.60 0.64 0.75 0.98 1.24 1.43 1.55 1.47
1.51 1.53 1.56 1.55 1.52 1.47 1.47 1.45 1.41 1.37 1.31 1.22 1.14 1.08 1.08 1.10 1.07 1.01 0.90 0.79 0.79 0.83 0.98 1.16 1.26 1.28 1.18 1.02 0.93 0.85 0.69 0.65 0.68 0.69 0.71 0.74 0.79 0.90 1.06 1.17 1.32 1.46 1.50
1.52 1.52 1.50 1.46 1.43 1.41 1.38 1.35 1.27 1.22 1.18 1.11 1.02 1.00 1.00 1.01 1.02 0.99 0.89 0.80 0.76 0.79 0.91 1.13 1.30 1.43 1.44 1.40 1.26 1.15 1.02 0.90 0.82 0.82 0.87 0.87 0.88 0.95 1.03 1.16 1.30 1.36 1.33
1.49 1.37 1.30 1.20 1.17 1.16 1.16 1.18 1.23 1.09 1.07 1.00 0.94 0.86 0.80 0.85 0.85 0.75 0.68 0.66 0.65 0.70 0.82 1.03 1.27 1.46 1.53 1.62 1.59 1.48 1.28 1.12 1.03 1.01 0.98 0.97 0.98 0.97 1.01 1.14 1.29 1.36 1.27
1.36 1.24 1.15 1.09 1.08 1.04 0.99 0.99 1.05 1.04 0.96 0.89 0.91 0.85 0.72 0.72 0.67 0.63 0.60 0.57 0.57 0.59 0.73 0.89 1.01 1.16 1.33 1.51 1.58 1.57 1.41 1.27 1.27 1.24 1.14 1.09 1.11 1.10 1.09 1.17 1.30 1.39 1.37
1.21 1.21 1.09 1.00 1.00 0.98 0.95 0.96 0.98 1.01 1.02 0.95 0.90 0.87 0.68 0.59 0.54 0.52 0.51 0.49 0.45 0.47 0.60 0.71 0.79 0.90 1.08 1.34 1.50 1.56 1.51 1.40 1.38 1.39 1.36 1.29 1.27 1.22 1.15 1.11 1.22 1.32 1.36
1.08 1.05 0.97 0.96 0.98 0.96 0.96 0.94 0.93 0.95 0.98 0.94 0.86 0.87 0.77 0.61 0.53 0.51 0.56 0.56 0.54 0.55 0.63 0.67 0.71 0.82 0.97 1.19 1.40 1.55 1.57 1.50 1.43 1.48 1.47 1.38 1.34 1.29 1.18 1.10 1.15 1.28 1.35
0.93 1.04 0.93 0.88 0.90 0.93 0.97 0.99 0.96 0.98 1.01 0.99 0.92 0.88 0.84 0.71 0.64 0.69 0.76 0.81 0.76 0.73 0.75 0.74 0.78 0.87 1.02 1.24 1.43 1.52 1.55 1.51 1.47 1.49 1.47 1.39 1.34 1.31 1.21 1.16 1.16 1.22 1.24
0.85 0.86 0.88 0.80 0.78 0.80 0.84 0.90 0.91 0.93 0.96 0.94 0.87 0.81 0.74 0.70 0.78 0.88 0.97 0.98 0.90 0.85 0.82 0.79 0.80 0.87 1.04 1.24 1.38 1.50 1.53 1.53 1.51 1.47 1.43 1.36 1.31 1.31 1.29 1.26 1.21 1.22 1.27
0.79 0.74 0.73 0.75 0.79 0.78 0.77 0.83 0.85 0.86 0.87 0.90 0.91 0.89 0.85 0.77 0.85 0.93 0.99 1.04 1.02 0.98 0.93 0.90 0.87 0.92 1.01 1.14 1.29 1.41 1.43 1.42 1.44 1.44 1.40 1.35 1.31 1.30 1.33 1.33 1.30 1.29 1.32
0.75 0.76 0.76 0.77 0.81 0.87 0.88 0.89 0.88 0.87 0.89 0.92 0.91 0.91 0.93 0.94 0.96 1.03 1.07 1.09 1.04 1.01 0.96 0.93 0.92 0.94 0.98 1.03 1.11 1.21 1.27 1.29 1.30 1.33 1.38 1.35 1.31 1.29 1.30 1.31 1.29 1.30 1.28
0.70 0.71 0.71 0.75 0.80 0.85 0.87 0.90 0.87 0.83 0.84 0.88 0.92 0.98 1.01 1.03 1.05 1.08 1.05 1.03 0.98 0.94 0.95 0.94 0.93 0.93 0.96 1.01 1.04 1.03 1.04 1.07 1.08 1.11 1.17 1.21 1.22 1.21 1.24 1.23 1.25 1.29 1.33
0.59 0.68 0.70 0.70 0.69 0.71 0.74 0.76 0.77 0.79 0.85 0.94 0.98 1.01 1.03 1.05 1.06 1.01 0.95 0.90 0.86 0.86 0.89 0.89 0.89 0.83 0.80 0.82 0.84 0.85 0.95 0.94 0.92 0.94 0.96 1.01 1.03 1.08 1.14 1.16 1.22 1.31 1.40
0.52 0.63 0.67 0.68 0.66 0.66 0.71 0.73 0.73 0.80 0.87 0.90 0.95 0.96 0.95 0.96 1.00 0.97 0.92 0.91 0.88 0.85 0.86 0.86 0.83 0.76 0.74 0.73 0.70 0.69 0.67 0.63 0.68 0.77 0.80 0.84 0.92 1.02 1.09 1.12 1.16 1.26 1.34